Weather History for KMOT - September, 2012

Change the Weather History Date:

Tuesday, September 4, 2012

  Actual Average Record
Temperature  
Mean Temperature 64 °F 63 °F  
Max Temperature 80 °F 75 °F 106 °F (1978)
Min Temperature 47 °F 51 °F 34 °F (1920)
Degree Days  
Heating Degree Days 1 4  
Month to date heating degree days 1 16  
Since 1 July heating degree days 14 87  
Cooling Degree Days 0 2  
Month to date cooling degree days 27 9  
Year to date cooling degree days 580 420  
Growing Degree Days 14 (Base 50)    
Moisture  
Dew Point 39 °F    
Average Humidity 50    
Maximum Humidity 77    
Minimum Humidity 22    
Precipitation  
Precipitation T in 0.05 in 3.14 in (1971)
Month to date precipitation 0.08 0.21  
Year to date precipitation 10.83 13.65  
Sea Level Pressure  
Sea Level Pressure 29.86 in    
Wind  
Wind Speed 10 mph (West)    
Max Wind Speed 24 mph    
Max Gust Speed 31 mph    
Visibility 10 miles    
Events      
T = Trace of Precipitation, MM = Missing Value Source: NWS Daily Summary

Daily Weather History Graph

Daily Weather History Graph

Search for Another Location

Airport or City:

Trip Planner

Search our weather history database for the weather conditions in past years. The results will help you decide how hot, cold, wet, or windy it might be!

Date:

Astronomy

Sep. 04, 2012 Rise Set
Actual Time 7:07 AM CDT 8:19 PM CDT
Civil Twilight 6:35 AM CDT 8:51 PM CDT
Nautical Twilight 5:56 AM CDT 9:29 PM CDT
Astronomical Twilight 5:15 AM CDT 10:10 PM CDT
Moon 9:46 PM CDT (9/4) 11:41 AM CDT (9/4)
Length of Visible Light 14h 15m
Length of Day
13h 11m
Waning Gibbous, 83% of the Moon is Illuminated
Sep 4
Waning Gibbous
Sep 8
Last Quarter
Sep 15
New
Sep 22
First Quarter
Sep 29
Full

Hourly Weather History & Observations

Time (CDT) Temp. Dew Point Humidity Pressure Visibility Wind Dir Wind Speed Gust Speed Precip Events Conditions
12:54 AM 55.0 °F 44.1 °F 67% 29.85 in 10.0 mi Calm Calm - N/A   Clear
1:54 AM 53.1 °F 43.0 °F 69% 29.84 in 10.0 mi Calm Calm - N/A   Clear
2:54 AM 51.1 °F 43.0 °F 74% 29.83 in 10.0 mi SW 5.8 mph - N/A   Clear
3:54 AM 50.0 °F 42.1 °F 74% 29.82 in 10.0 mi SW 8.1 mph - N/A   Clear
4:54 AM 51.1 °F 41.0 °F 68% 29.82 in 10.0 mi SW 3.5 mph - N/A   Clear
5:54 AM 48.9 °F 41.0 °F 74% 29.82 in 10.0 mi Calm Calm - N/A   Clear
6:54 AM 50.0 °F 41.0 °F 71% 29.83 in 10.0 mi SW 6.9 mph - N/A   Clear
7:54 AM 53.1 °F 43.0 °F 69% 29.83 in 10.0 mi WSW 5.8 mph - N/A   Clear
8:54 AM 60.1 °F 42.1 °F 51% 29.84 in 10.0 mi WSW 4.6 mph - N/A   Clear
9:54 AM 64.9 °F 42.1 °F 43% 29.85 in 10.0 mi West 8.1 mph - N/A   Clear
10:54 AM 70.0 °F 41.0 °F 35% 29.86 in 10.0 mi WNW 10.4 mph 16.1 mph N/A   Clear
11:54 AM 71.1 °F 39.0 °F 31% 29.86 in 10.0 mi WNW 6.9 mph - N/A   Clear
12:54 PM 72.0 °F 39.9 °F 31% 29.86 in 10.0 mi WNW 4.6 mph - N/A   Clear
1:54 PM 77.0 °F 37.9 °F 24% 29.83 in 10.0 mi West 8.1 mph - N/A   Clear
2:54 PM 79.0 °F 37.9 °F 23% 29.84 in 10.0 mi NW 6.9 mph 16.1 mph N/A   Clear
3:54 PM 77.0 °F 36.0 °F 23% 29.83 in 10.0 mi West 10.4 mph - N/A   Clear
4:54 PM 77.0 °F 37.0 °F 24% 29.85 in 10.0 mi WNW 15.0 mph 20.7 mph N/A   Clear
5:54 PM 75.9 °F 37.9 °F 25% 29.86 in 10.0 mi West 16.1 mph - N/A   Clear
6:54 PM 72.0 °F 37.0 °F 28% 29.88 in 10.0 mi NW 18.4 mph 25.3 mph N/A   Scattered Clouds
7:54 PM 71.1 °F 35.1 °F 27% 29.88 in 10.0 mi WNW 17.3 mph - N/A   Overcast
8:54 PM 68.0 °F 32.0 °F 26% 29.90 in 10.0 mi WNW 18.4 mph - N/A   Scattered Clouds
9:54 PM 64.9 °F 34.0 °F 32% 29.92 in 10.0 mi WNW 15.0 mph - N/A   Mostly Cloudy
10:54 PM 62.1 °F 39.0 °F 43% 29.91 in 10.0 mi West 15.0 mph - 0.00 in   Overcast
11:54 PM 60.1 °F 39.0 °F 46% 29.91 in 10.0 mi West 12.7 mph - N/A   Partly Cloudy